timestamp,wind_dir_avg,wind_spd_avg,wind_spd_max_dir,wind_spd_gust,battery_voltage,lat,long
2024-04-08 00:04:00+00:00,46.0,11.48,46.0,11.49,12.33,47.59359,-54.27349
2024-04-08 00:14:00+00:00,44.0,11.22,39.0,11.6,12.25,47.59359,-54.27349
2024-04-08 00:24:00+00:00,42.0,10.86,42.0,11.31,12.25,47.59359,-54.27349
2024-04-08 00:34:00+00:00,41.0,11.56,36.0,12.46,12.25,47.59359,-54.27349
2024-04-08 00:44:00+00:00,43.0,11.55,41.0,12.72,12.25,47.59359,-54.27349
2024-04-08 00:54:00+00:00,40.0,11.92,39.0,12.67,12.25,47.59359,-54.27349
2024-04-08 01:04:00+00:00,43.0,11.77,40.0,13.02,12.25,47.59359,-54.27349
2024-04-08 01:14:00+00:00,43.0,11.73,44.0,12.6,12.17,47.59359,-54.27349
2024-04-08 01:24:00+00:00,45.0,10.88,45.0,12.09,12.17,47.59359,-54.27349
2024-04-08 01:34:00+00:00,44.0,10.99,43.0,12.41,12.17,47.59359,-54.27349
2024-04-08 01:44:00+00:00,44.0,11.3,47.0,12.14,12.17,47.59359,-54.27349
2024-04-08 01:54:00+00:00,50.0,11.22,51.0,12.72,12.17,47.59359,-54.27349
2024-04-08 02:04:00+00:00,47.0,10.83,49.0,11.82,12.17,47.59359,-54.27349
2024-04-08 02:14:00+00:00,47.0,11.11,49.0,12.47,12.17,47.59359,-54.27349
2024-04-08 02:24:00+00:00,43.0,10.96,49.0,11.92,12.17,47.59359,-54.27349
2024-04-08 02:34:00+00:00,45.0,11.68,34.0,13.02,12.17,47.59359,-54.27349
2024-04-08 02:44:00+00:00,46.0,11.2,47.0,12.25,12.17,47.59359,-54.27349
2024-04-08 02:54:00+00:00,48.0,10.41,45.0,11.66,12.17,47.59359,-54.27349
2024-04-08 03:04:00+00:00,48.0,10.82,46.0,12.26,12.17,47.59359,-54.27349
2024-04-08 03:14:00+00:00,44.0,11.81,46.0,12.76,12.17,47.59359,-54.27349
2024-04-08 03:24:00+00:00,44.0,11.8,42.0,12.93,12.17,47.59359,-54.27349
2024-04-08 03:34:00+00:00,44.0,11.95,42.0,13.51,12.17,47.59359,-54.27349
2024-04-08 03:44:00+00:00,44.0,11.43,44.0,12.83,12.17,47.59359,-54.27349
2024-04-08 03:54:00+00:00,42.0,11.83,40.0,13.4,12.17,47.59359,-54.27349
2024-04-08 04:04:00+00:00,46.0,11.08,44.0,13.01,12.17,47.59359,-54.27349
2024-04-08 04:14:01+00:00,40.0,11.93,46.0,12.6,12.17,47.59359,-54.27349
2024-04-08 04:24:01+00:00,45.0,11.71,40.0,13.49,12.17,47.59359,-54.27349
2024-04-08 04:34:01+00:00,45.0,11.25,45.0,13.21,12.17,47.59359,-54.27349
2024-04-08 04:44:01+00:00,47.0,11.43,41.0,12.9,12.17,47.59359,-54.27349
2024-04-08 04:54:01+00:00,49.0,11.07,47.0,13.09,12.17,47.59359,-54.27349
2024-04-08 05:04:01+00:00,51.0,10.75,45.0,11.73,12.17,47.59359,-54.27349
2024-04-08 05:14:00+00:00,50.0,10.73,49.0,12.49,12.09,47.59359,-54.27349
2024-04-08 05:24:00+00:00,51.0,10.94,45.0,11.89,12.09,47.59359,-54.27349
2024-04-08 05:34:00+00:00,45.0,11.98,45.0,12.71,12.09,47.59359,-54.27349
2024-04-08 05:44:00+00:00,48.0,11.02,47.0,12.71,12.09,47.59359,-54.27349
2024-04-08 05:54:00+00:00,45.0,11.54,42.0,13.31,12.09,47.59359,-54.27349
2024-04-08 06:04:00+00:00,43.0,12.36,42.0,13.64,12.09,47.59359,-54.27349
2024-04-08 06:14:01+00:00,45.0,11.32,42.0,12.8,12.09,47.59359,-54.27349
2024-04-08 06:24:01+00:00,40.0,12.2,37.0,14.88,12.09,47.59359,-54.27349
2024-04-08 06:34:01+00:00,38.0,13.33,37.0,14.63,12.09,47.59359,-54.27349
2024-04-08 06:44:01+00:00,41.0,12.74,37.0,13.95,12.09,47.59359,-54.27349
2024-04-08 06:54:01+00:00,41.0,12.57,37.0,14.32,12.09,47.59359,-54.27349
2024-04-08 07:04:01+00:00,42.0,12.17,39.0,13.81,12.09,47.59359,-54.27349
2024-04-08 07:14:01+00:00,35.0,13.01,32.0,15.28,12.09,47.59359,-54.27349
2024-04-08 07:24:01+00:00,36.0,12.26,29.0,13.36,12.09,47.59359,-54.27349
2024-04-08 07:34:01+00:00,37.0,13.83,36.0,15.76,12.09,47.59359,-54.27349
2024-04-08 07:44:01+00:00,34.0,13.78,33.0,15.34,12.09,47.59359,-54.27349
2024-04-08 07:54:01+00:00,36.0,13.47,38.0,14.74,12.09,47.59359,-54.27349
2024-04-08 08:04:01+00:00,32.0,15.57,28.0,18.07,12.09,47.59359,-54.27349
2024-04-08 08:14:00+00:00,32.0,15.35,29.0,16.47,12.01,47.59359,-54.27349
2024-04-08 08:24:00+00:00,36.0,14.01,35.0,15.41,12.01,47.59359,-54.27349
2024-04-08 08:34:00+00:00,35.0,14.4,35.0,16.12,12.01,47.59359,-54.27349
2024-04-08 08:44:00+00:00,33.0,12.19,30.0,13.73,12.01,47.59359,-54.27349
2024-04-08 08:54:00+00:00,32.0,14.78,39.0,16.97,12.01,47.59359,-54.27349
2024-04-08 09:04:00+00:00,36.0,14.21,40.0,16.82,12.01,47.59359,-54.27349
2024-04-08 09:14:00+00:00,31.0,14.37,39.0,16.72,12.01,47.59359,-54.27349
2024-04-08 09:24:00+00:00,32.0,14.14,36.0,16.11,12.01,47.59359,-54.27349
2024-04-08 09:34:00+00:00,35.0,13.42,36.0,15.76,12.01,47.59359,-54.27349
2024-04-08 09:44:00+00:00,34.0,14.33,40.0,16.16,12.01,47.59359,-54.27349
2024-04-08 09:54:00+00:00,31.0,13.85,33.0,16.08,12.01,47.59359,-54.27349
2024-04-08 10:04:00+00:00,30.0,14.59,35.0,16.3,12.01,47.59359,-54.27349
2024-04-08 10:14:00+00:00,32.0,14.64,30.0,16.68,12.09,47.59359,-54.27349
2024-04-08 10:24:00+00:00,36.0,13.4,41.0,16.13,12.09,47.59359,-54.27349
2024-04-08 10:34:00+00:00,29.0,14.02,32.0,15.72,12.09,47.59359,-54.27349
2024-04-08 10:44:00+00:00,31.0,13.1,33.0,14.77,12.09,47.59359,-54.27349
2024-04-08 10:54:00+00:00,31.0,14.13,37.0,15.76,12.09,47.59359,-54.27349
2024-04-08 11:04:00+00:00,31.0,15.31,33.0,17.44,12.09,47.59359,-54.27349
2024-04-08 11:14:00+00:00,34.0,14.63,41.0,17.52,13.44,47.59359,-54.27349
2024-04-08 11:24:00+00:00,27.0,14.28,27.0,15.81,13.44,47.59359,-54.27349
2024-04-08 11:34:00+00:00,31.0,14.48,40.0,16.96,13.44,47.59359,-54.27349
2024-04-08 11:44:00+00:00,32.0,13.81,41.0,17.28,13.44,47.59359,-54.27349
2024-04-08 11:54:00+00:00,30.0,14.15,31.0,16.33,13.44,47.59359,-54.27349
2024-04-08 12:04:00+00:00,28.0,12.79,30.0,13.85,13.44,47.59359,-54.27349
2024-04-08 12:14:00+00:00,32.0,14.75,38.0,17.01,13.6,47.59359,-54.27349
2024-04-08 12:24:00+00:00,27.0,14.15,31.0,15.46,13.6,47.59359,-54.27349
2024-04-08 12:34:00+00:00,31.0,14.09,32.0,16.12,13.6,47.59359,-54.27349
2024-04-08 12:44:00+00:00,33.0,14.58,32.0,16.69,13.6,47.59359,-54.27349
2024-04-08 12:54:00+00:00,28.0,14.28,36.0,15.47,13.6,47.59359,-54.27349
2024-04-08 13:04:00+00:00,32.0,13.23,33.0,15.06,13.6,47.59359,-54.27349
2024-04-08 13:14:01+00:00,31.0,14.85,38.0,17.97,13.6,47.59359,-54.27349
2024-04-08 13:24:01+00:00,33.0,13.28,35.0,14.96,13.6,47.59359,-54.27349
2024-04-08 13:34:01+00:00,31.0,13.95,33.0,15.94,13.6,47.59359,-54.27349
2024-04-08 13:44:01+00:00,35.0,14.04,40.0,16.57,13.6,47.59359,-54.27349
2024-04-08 13:54:01+00:00,32.0,13.65,41.0,17.15,13.6,47.59359,-54.27349
2024-04-08 14:04:01+00:00,30.0,12.48,24.0,13.51,13.6,47.59359,-54.27349
2024-04-08 14:14:00+00:00,36.0,12.91,40.0,14.14,13.53,47.59359,-54.27349
2024-04-08 14:24:00+00:00,30.0,13.34,34.0,14.93,13.53,47.59359,-54.27349
2024-04-08 14:34:00+00:00,36.0,13.4,35.0,15.01,13.53,47.59359,-54.27349
2024-04-08 14:44:00+00:00,29.0,13.51,25.0,15.26,13.53,47.59359,-54.27349
2024-04-08 14:54:00+00:00,30.0,13.76,31.0,15.43,13.53,47.59359,-54.27349
2024-04-08 15:04:00+00:00,39.0,14.19,45.0,18.45,13.53,47.59359,-54.27349
2024-04-08 15:14:00+00:00,36.0,13.09,36.0,14.44,13.53,47.59359,-54.27349
2024-04-08 15:24:00+00:00,33.0,13.64,36.0,15.9,13.53,47.59359,-54.27349
2024-04-08 15:34:00+00:00,38.0,13.01,36.0,14.81,13.53,47.59359,-54.27349
2024-04-08 15:44:00+00:00,36.0,14.07,39.0,16.99,13.53,47.59359,-54.27349
2024-04-08 15:54:00+00:00,36.0,12.9,34.0,14.78,13.53,47.59359,-54.27349
2024-04-08 16:04:00+00:00,36.0,12.77,37.0,14.83,13.53,47.59359,-54.27349
2024-04-08 16:14:00+00:00,38.0,12.23,38.0,14.74,13.44,47.59359,-54.27349
2024-04-08 16:24:00+00:00,36.0,13.32,35.0,14.81,13.44,47.59359,-54.27349
2024-04-08 16:34:00+00:00,36.0,12.41,40.0,14.02,13.44,47.59359,-54.27349
2024-04-08 16:44:00+00:00,38.0,13.16,38.0,14.26,13.44,47.59359,-54.27349
2024-04-08 16:54:00+00:00,32.0,13.64,37.0,15.7,13.44,47.59359,-54.27349
2024-04-08 17:04:00+00:00,34.0,14.54,37.0,16.36,13.44,47.59359,-54.27349
2024-04-08 17:14:01+00:00,36.0,13.6,38.0,15.31,13.68,47.59359,-54.27349
2024-04-08 17:24:01+00:00,36.0,13.07,37.0,14.81,13.68,47.59359,-54.27349
2024-04-08 17:34:01+00:00,35.0,13.69,39.0,15.63,13.68,47.59359,-54.27349
2024-04-08 17:44:01+00:00,41.0,11.56,48.0,14.5,13.68,47.59359,-54.27349
2024-04-08 17:54:01+00:00,38.0,13.01,37.0,14.94,13.68,47.59359,-54.27349
2024-04-08 18:04:01+00:00,34.0,12.23,38.0,13.42,13.68,47.59359,-54.27349
2024-04-08 18:14:01+00:00,35.0,13.33,43.0,16.51,13.68,47.59359,-54.27349
2024-04-08 18:24:01+00:00,34.0,12.65,36.0,13.75,13.68,47.59359,-54.27349
2024-04-08 18:34:01+00:00,36.0,14.66,44.0,18.47,13.68,47.59359,-54.27349
2024-04-08 18:44:01+00:00,39.0,12.41,46.0,15.81,13.68,47.59359,-54.27349
2024-04-08 18:54:01+00:00,39.0,12.5,43.0,14.3,13.68,47.59359,-54.27349
2024-04-08 19:04:01+00:00,39.0,13.28,27.0,15.2,13.68,47.59359,-54.27349
2024-04-08 19:14:00+00:00,39.0,13.42,48.0,14.9,13.53,47.59359,-54.27349
2024-04-08 19:24:00+00:00,33.0,13.02,34.0,14.22,13.53,47.59359,-54.27349
2024-04-08 19:34:00+00:00,33.0,12.7,32.0,14.17,13.53,47.59359,-54.27349
2024-04-08 19:44:00+00:00,31.0,11.71,36.0,13.22,13.53,47.59359,-54.27349
2024-04-08 19:54:00+00:00,37.0,11.16,35.0,12.94,13.53,47.59359,-54.27349
2024-04-08 20:04:00+00:00,32.0,12.41,34.0,14.11,13.53,47.59359,-54.27349
2024-04-08 20:14:00+00:00,30.0,12.28,30.0,12.89,13.05,47.59359,-54.27349
2024-04-08 20:24:00+00:00,26.0,14.14,27.0,14.85,13.05,47.59359,-54.27349
2024-04-08 20:34:00+00:00,34.0,11.64,35.0,13.01,13.05,47.59359,-54.27349
2024-04-08 20:44:00+00:00,42.0,11.56,38.0,12.87,13.05,47.59359,-54.27349
2024-04-08 20:54:00+00:00,43.0,12.36,41.0,13.8,13.05,47.59359,-54.27349
2024-04-08 21:04:00+00:00,44.0,11.61,40.0,13.26,13.05,47.59359,-54.27349
2024-04-08 21:14:00+00:00,34.0,12.54,36.0,13.71,13.44,47.59359,-54.27349
2024-04-08 21:24:00+00:00,40.0,12.06,33.0,15.06,13.44,47.59359,-54.27349
2024-04-08 21:34:00+00:00,37.0,12.56,35.0,15.09,13.44,47.59359,-54.27349
2024-04-08 21:44:00+00:00,39.0,12.08,36.0,14.08,13.44,47.59359,-54.27349
2024-04-08 21:54:00+00:00,39.0,13.05,40.0,14.26,13.44,47.59359,-54.27349
2024-04-08 22:04:00+00:00,35.0,13.63,35.0,16.16,13.44,47.59359,-54.27349
2024-04-08 22:14:01+00:00,31.0,13.82,31.0,15.7,12.89,47.59359,-54.27349
2024-04-08 22:24:01+00:00,33.0,12.29,34.0,13.06,12.89,47.59359,-54.27349
2024-04-08 22:34:01+00:00,32.0,13.28,31.0,15.46,12.89,47.59359,-54.27349
2024-04-08 22:44:01+00:00,31.0,14.47,31.0,15.87,12.89,47.59359,-54.27349
2024-04-08 22:54:01+00:00,36.0,14.47,42.0,17.19,12.89,47.59359,-54.27349
2024-04-08 23:04:01+00:00,36.0,13.26,35.0,15.65,12.89,47.59359,-54.27349
2024-04-08 23:14:00+00:00,40.0,13.86,41.0,15.17,12.41,47.59359,-54.27349
2024-04-08 23:24:00+00:00,36.0,12.84,38.0,14.68,12.41,47.59359,-54.27349
2024-04-08 23:34:00+00:00,35.0,12.25,33.0,13.95,12.41,47.59359,-54.27349
2024-04-08 23:44:00+00:00,35.0,11.53,37.0,13.33,12.41,47.59359,-54.27349
2024-04-08 23:54:00+00:00,30.0,13.2,33.0,14.91,12.41,47.59359,-54.27349
